Time,TemperatureF,DewpointF,PressureIn,WindDirection,WindDirectionDegrees,WindSpeedMPH,WindSpeedGustMPH,Humidity,HourlyPrecipIn,Conditions,Clouds,dailyrainin,SoftwareType,DateUTC
2013-10-26 00:02:00,55.9,52.7,30.11,SSW,198,1.0,2.0,89,0.00,,,0.00,WeatherCatV1.21B27,2013-10-26 07:02:00,
2013-10-26 00:07:00,55.8,52.9,30.11,SW,234,1.0,1.0,90,0.00,,,0.00,WeatherCatV1.21B27,2013-10-26 07:07:00,
2013-10-26 00:12:00,55.7,52.8,30.11,SW,233,0.0,1.0,90,0.00,,,0.00,WeatherCatV1.21B27,2013-10-26 07:12:00,
2013-10-26 00:17:00,55.8,52.3,30.11,SW,233,1.0,1.0,88,0.00,,,0.00,WeatherCatV1.21B27,2013-10-26 07:17:00,
2013-10-26 00:22:00,56.4,51.6,30.11,SW,233,0.0,1.0,84,0.00,,,0.00,WeatherCatV1.21B27,2013-10-26 07:22:00,
2013-10-26 00:27:00,56.6,51.5,30.11,SW,233,0.0,0.0,83,0.00,,,0.00,WeatherCatV1.21B27,2013-10-26 07:27:00,
2013-10-26 00:32:00,56.7,51.9,30.11,WSW,237,2.0,2.0,84,0.00,,,0.00,WeatherCatV1.21B27,2013-10-26 07:32:00,
2013-10-26 00:37:00,56.1,52.3,30.12,SW,233,2.0,2.0,87,0.00,,,0.00,WeatherCatV1.21B27,2013-10-26 07:37:00,
2013-10-26 00:42:00,55.6,52.4,30.11,SW,220,1.0,2.0,89,0.00,,,0.00,WeatherCatV1.21B27,2013-10-26 07:42:00,
2013-10-26 00:47:00,55.1,52.2,30.12,SW,227,0.0,0.0,90,0.00,,,0.00,WeatherCatV1.21B27,2013-10-26 07:47:00,
2013-10-26 00:52:00,54.8,51.9,30.12,SW,231,1.0,1.0,90,0.00,,,0.00,WeatherCatV1.21B27,2013-10-26 07:52:00,
2013-10-26 00:57:00,54.9,51.7,30.12,WSW,238,1.0,2.0,89,0.00,,,0.00,WeatherCatV1.21B27,2013-10-26 07:57:00,
2013-10-26 01:02:00,55.2,52.0,30.12,SW,236,1.0,1.0,89,0.00,,,0.00,WeatherCatV1.21B27,2013-10-26 08:02:00,
2013-10-26 01:08:00,55.3,51.5,30.12,WSW,237,0.0,0.0,87,0.00,,,0.00,WeatherCatV1.21B27,2013-10-26 08:08:00,
2013-10-26 01:13:00,55.0,51.2,30.12,SW,236,0.0,0.0,87,0.00,,,0.00,WeatherCatV1.21B27,2013-10-26 08:13:00,
2013-10-26 01:18:00,54.8,51.0,30.12,NW,308,1.0,1.0,87,0.00,,,0.00,WeatherCatV1.21B27,2013-10-26 08:18:00,
2013-10-26 01:23:00,55.2,51.1,30.12,NW,308,0.0,0.0,86,0.00,,,0.00,WeatherCatV1.21B27,2013-10-26 08:23:00,
2013-10-26 01:28:00,55.4,50.6,30.12,NW,308,0.0,0.0,84,0.00,,,0.00,WeatherCatV1.21B27,2013-10-26 08:28:00,
2013-10-26 01:33:00,55.5,50.4,30.12,NW,307,0.0,0.0,83,0.00,,,0.00,WeatherCatV1.21B27,2013-10-26 08:33:00,
2013-10-26 01:38:00,55.5,50.7,30.12,WSW,237,1.0,2.0,84,0.00,,,0.00,WeatherCatV1.21B27,2013-10-26 08:38:00,
2013-10-26 01:43:00,55.3,51.2,30.12,SW,217,1.0,2.0,86,0.00,,,0.00,WeatherCatV1.21B27,2013-10-26 08:43:00,
2013-10-26 01:48:00,54.8,51.6,30.12,SW,219,1.0,2.0,89,0.00,,,0.00,WeatherCatV1.21B27,2013-10-26 08:48:00,
2013-10-26 01:53:00,54.5,51.6,30.12,SW,220,0.0,0.0,90,0.00,,,0.00,WeatherCatV1.21B27,2013-10-26 08:53:00,
2013-10-26 01:58:00,54.3,51.7,30.12,SW,220,0.0,0.0,91,0.00,,,0.00,WeatherCatV1.21B27,2013-10-26 08:58:00,
2013-10-26 02:03:00,54.1,51.8,30.12,SW,220,0.0,1.0,92,0.00,,,0.00,WeatherCatV1.21B27,2013-10-26 09:03:00,
2013-10-26 02:08:00,53.9,51.6,30.12,SW,220,0.0,1.0,92,0.00,,,0.00,WeatherCatV1.21B27,2013-10-26 09:08:00,
2013-10-26 02:13:00,53.7,51.7,30.12,SW,220,0.0,0.0,93,0.00,,,0.00,WeatherCatV1.21B27,2013-10-26 09:13:00,
2013-10-26 02:18:00,53.6,51.6,30.13,SW,220,1.0,1.0,93,0.00,,,0.00,WeatherCatV1.21B27,2013-10-26 09:18:00,
2013-10-26 02:23:00,53.6,51.6,30.12,SW,231,0.0,0.0,93,0.00,,,0.00,WeatherCatV1.21B27,2013-10-26 09:23:00,
2013-10-26 02:28:00,53.4,51.4,30.13,SW,231,0.0,0.0,93,0.00,,,0.00,WeatherCatV1.21B27,2013-10-26 09:28:00,
2013-10-26 02:33:00,53.4,51.4,30.13,SW,231,0.0,1.0,93,0.00,,,0.00,WeatherCatV1.21B27,2013-10-26 09:33:00,
2013-10-26 02:38:00,53.7,51.1,30.13,SW,231,0.0,1.0,91,0.00,,,0.00,WeatherCatV1.21B27,2013-10-26 09:38:00,
2013-10-26 02:43:00,53.9,51.0,30.13,SW,231,0.0,1.0,90,0.00,,,0.00,WeatherCatV1.21B27,2013-10-26 09:43:00,
2013-10-26 02:48:00,54.1,51.2,30.13,SW,231,0.0,0.0,90,0.00,,,0.00,WeatherCatV1.21B27,2013-10-26 09:48:00,
2013-10-26 02:53:00,54.1,51.2,30.13,SW,234,0.0,1.0,90,0.00,,,0.00,WeatherCatV1.21B27,2013-10-26 09:53:00,
2013-10-26 02:58:00,54.0,51.1,30.12,SW,234,0.0,0.0,90,0.00,,,0.00,WeatherCatV1.21B27,2013-10-26 09:58:00,
2013-10-26 03:03:00,53.9,51.3,30.12,SW,234,0.0,0.0,91,0.00,,,0.00,WeatherCatV1.21B27,2013-10-26 10:03:00,
2013-10-26 03:08:00,53.7,51.1,30.12,SW,234,0.0,0.0,91,0.00,,,0.00,WeatherCatV1.21B27,2013-10-26 10:08:00,
2013-10-26 03:13:00,53.4,50.8,30.12,SW,234,0.0,0.0,91,0.00,,,0.00,WeatherCatV1.21B27,2013-10-26 10:13:00,
2013-10-26 03:18:00,53.4,51.1,30.12,NNE,17,1.0,2.0,92,0.00,,,0.00,WeatherCatV1.21B27,2013-10-26 10:18:00,
2013-10-26 03:23:00,53.8,51.5,30.12,NNE,17,0.0,0.0,92,0.00,,,0.00,WeatherCatV1.21B27,2013-10-26 10:23:00,
2013-10-26 03:28:00,53.6,51.0,30.12,NNE,16,0.0,0.0,91,0.00,,,0.00,WeatherCatV1.21B27,2013-10-26 10:28:00,
2013-10-26 03:33:00,53.5,50.9,30.12,NNE,16,1.0,1.0,91,0.00,,,0.00,WeatherCatV1.21B27,2013-10-26 10:33:00,
2013-10-26 03:38:00,54.0,51.4,30.12,NNE,17,1.0,1.0,91,0.00,,,0.00,WeatherCatV1.21B27,2013-10-26 10:38:00,
2013-10-26 03:43:00,54.2,51.3,30.12,NNE,17,1.0,1.0,90,0.00,,,0.00,WeatherCatV1.21B27,2013-10-26 10:43:00,
2013-10-26 03:50:00,54.5,51.9,30.11,NNE,26,1.0,2.0,91,0.00,,,0.00,WeatherCatV1.21B27,2013-10-26 10:50:00,
2013-10-26 03:55:00,54.5,51.6,30.11,NNE,26,0.0,0.0,90,0.00,,,0.00,WeatherCatV1.21B27,2013-10-26 10:55:00,
2013-10-26 04:00:00,54.4,51.5,30.11,NNE,26,0.0,0.0,90,0.00,,,0.00,WeatherCatV1.21B27,2013-10-26 11:00:00,
2013-10-26 04:05:00,54.1,51.2,30.11,South,172,0.0,1.0,90,0.00,,,0.00,WeatherCatV1.21B27,2013-10-26 11:05:00,
2013-10-26 04:10:00,53.7,51.1,30.11,SSW,194,0.0,1.0,91,0.00,,,0.00,WeatherCatV1.21B27,2013-10-26 11:10:00,
2013-10-26 04:15:00,53.3,50.7,30.11,SSW,194,0.0,0.0,91,0.00,,,0.00,WeatherCatV1.21B27,2013-10-26 11:15:00,
2013-10-26 04:20:00,53.0,50.7,30.11,SSW,193,0.0,0.0,92,0.00,,,0.00,WeatherCatV1.21B27,2013-10-26 11:20:00,
2013-10-26 04:25:00,52.9,50.9,30.11,SSW,193,0.0,0.0,93,0.00,,,0.00,WeatherCatV1.21B27,2013-10-26 11:25:00,
2013-10-26 04:30:00,52.8,50.8,30.11,SSW,193,0.0,0.0,93,0.00,,,0.00,WeatherCatV1.21B27,2013-10-26 11:30:00,
2013-10-26 04:35:00,52.8,51.1,30.11,SSW,193,0.0,0.0,94,0.00,,,0.00,WeatherCatV1.21B27,2013-10-26 11:35:00,
2013-10-26 04:40:00,52.6,50.6,30.11,SSW,193,0.0,0.0,93,0.00,,,0.00,WeatherCatV1.21B27,2013-10-26 11:40:00,
2013-10-26 04:45:00,52.5,50.8,30.11,SSW,193,0.0,0.0,94,0.00,,,0.00,WeatherCatV1.21B27,2013-10-26 11:45:00,
2013-10-26 04:50:00,52.5,50.8,30.11,SSW,194,0.0,0.0,94,0.00,,,0.00,WeatherCatV1.21B27,2013-10-26 11:50:00,
2013-10-26 04:55:00,52.3,50.6,30.11,SSW,193,0.0,0.0,94,0.00,,,0.00,WeatherCatV1.21B27,2013-10-26 11:55:00,
2013-10-26 05:00:00,52.2,50.8,30.11,SSW,193,0.0,0.0,95,0.00,,,0.00,WeatherCatV1.21B27,2013-10-26 12:00:00,
2013-10-26 05:05:00,52.2,50.8,30.11,SSW,193,0.0,0.0,95,0.00,,,0.00,WeatherCatV1.21B27,2013-10-26 12:05:00,
2013-10-26 05:10:00,52.1,50.7,30.11,SSW,193,0.0,0.0,95,0.00,,,0.00,WeatherCatV1.21B27,2013-10-26 12:10:00,
2013-10-26 05:15:00,52.0,50.6,30.11,SSW,200,0.0,0.0,95,0.00,,,0.00,WeatherCatV1.21B27,2013-10-26 12:15:00,
2013-10-26 05:20:00,52.0,50.9,30.11,SSW,200,0.0,0.0,96,0.00,,,0.00,WeatherCatV1.21B27,2013-10-26 12:20:00,
2013-10-26 05:25:00,52.0,50.9,30.11,SSW,200,0.0,0.0,96,0.00,,,0.00,WeatherCatV1.21B27,2013-10-26 12:25:00,
2013-10-26 05:30:00,51.9,50.8,30.11,SSW,199,0.0,0.0,96,0.00,,,0.00,WeatherCatV1.21B27,2013-10-26 12:30:00,
2013-10-26 05:35:00,52.1,51.0,30.11,SSW,200,0.0,0.0,96,0.00,,,0.00,WeatherCatV1.21B27,2013-10-26 12:35:00,
2013-10-26 05:40:00,52.1,51.0,30.11,SSW,200,0.0,0.0,96,0.00,,,0.00,WeatherCatV1.21B27,2013-10-26 12:40:00,
2013-10-26 05:45:00,52.2,51.1,30.11,SW,236,1.0,2.0,96,0.00,,,0.00,WeatherCatV1.21B27,2013-10-26 12:45:00,
2013-10-26 05:50:00,52.3,51.2,30.11,SW,235,0.0,0.0,96,0.00,,,0.00,WeatherCatV1.21B27,2013-10-26 12:50:00,
2013-10-26 05:55:00,52.5,51.1,30.11,SW,235,1.0,1.0,95,0.00,,,0.00,WeatherCatV1.21B27,2013-10-26 12:55:00,
2013-10-26 06:00:00,53.0,51.0,30.11,WSW,239,0.0,1.0,93,0.00,,,0.00,WeatherCatV1.21B27,2013-10-26 13:00:00,
2013-10-26 06:05:00,53.8,50.9,30.11,WSW,239,0.0,1.0,90,0.00,,,0.00,WeatherCatV1.21B27,2013-10-26 13:05:00,
2013-10-26 06:10:00,54.1,50.9,30.11,SW,216,0.0,1.0,89,0.00,,,0.00,WeatherCatV1.21B27,2013-10-26 13:10:00,
2013-10-26 06:15:00,54.4,50.9,30.11,SW,218,1.0,1.0,88,0.00,,,0.00,WeatherCatV1.21B27,2013-10-26 13:15:00,
2013-10-26 06:20:00,54.5,50.7,30.11,SW,218,0.0,1.0,87,0.00,,,0.00,WeatherCatV1.21B27,2013-10-26 13:20:00,
2013-10-26 06:25:00,54.5,50.7,30.11,SW,218,0.0,1.0,87,0.00,,,0.00,WeatherCatV1.21B27,2013-10-26 13:25:00,
2013-10-26 06:30:00,54.6,50.8,30.11,SW,218,0.0,0.0,87,0.00,,,0.00,WeatherCatV1.21B27,2013-10-26 13:30:00,
2013-10-26 06:35:00,54.7,50.9,30.11,SW,225,0.0,1.0,87,0.00,,,0.00,WeatherCatV1.21B27,2013-10-26 13:35:00,
2013-10-26 06:40:00,54.7,50.9,30.11,SW,225,0.0,1.0,87,0.00,,,0.00,WeatherCatV1.21B27,2013-10-26 13:40:00,
2013-10-26 06:45:00,54.4,50.6,30.12,SW,225,0.0,1.0,87,0.00,,,0.00,WeatherCatV1.21B27,2013-10-26 13:45:00,
2013-10-26 06:50:00,54.1,50.6,30.12,WSW,238,1.0,2.0,88,0.00,,,0.00,WeatherCatV1.21B27,2013-10-26 13:50:00,
2013-10-26 06:55:00,53.6,50.7,30.12,WSW,238,0.0,0.0,90,0.00,,,0.00,WeatherCatV1.21B27,2013-10-26 13:55:00,
2013-10-26 07:00:00,53.4,50.5,30.12,WSW,238,0.0,1.0,90,0.00,,,0.00,WeatherCatV1.21B27,2013-10-26 14:00:00,
2013-10-26 07:05:00,53.2,50.6,30.12,WSW,238,0.0,1.0,91,0.00,,,0.00,WeatherCatV1.21B27,2013-10-26 14:05:00,
2013-10-26 07:10:00,53.2,50.9,30.12,WSW,238,0.0,0.0,92,0.00,,,0.00,WeatherCatV1.21B27,2013-10-26 14:10:00,
2013-10-26 07:15:00,52.9,50.6,30.12,WSW,238,0.0,0.0,92,0.00,,,0.00,WeatherCatV1.21B27,2013-10-26 14:15:00,
2013-10-26 07:20:00,52.6,50.3,30.12,WSW,238,0.0,0.0,92,0.00,,,0.00,WeatherCatV1.21B27,2013-10-26 14:20:00,
2013-10-26 07:25:00,52.3,50.0,30.12,WSW,238,0.0,0.0,92,0.00,,,0.00,WeatherCatV1.21B27,2013-10-26 14:25:00,
2013-10-26 07:30:00,52.2,50.0,30.12,WSW,238,0.0,0.0,92,0.00,,,0.00,WeatherCatV1.21B27,2013-10-26 14:30:00,
2013-10-26 07:35:00,52.2,50.2,30.12,WSW,238,0.0,0.0,93,0.00,,,0.00,WeatherCatV1.21B27,2013-10-26 14:35:00,
2013-10-26 07:40:00,52.3,50.6,30.13,North,5,1.0,1.0,94,0.00,,,0.00,WeatherCatV1.21B27,2013-10-26 14:40:00,
2013-10-26 07:45:00,52.4,50.7,30.13,North,5,0.0,1.0,94,0.00,,,0.00,WeatherCatV1.21B27,2013-10-26 14:45:00,
2013-10-26 07:50:00,52.5,51.1,30.13,North,5,1.0,1.0,95,0.00,,,0.00,WeatherCatV1.21B27,2013-10-26 14:50:00,
2013-10-26 07:55:00,52.6,51.2,30.13,NNE,15,2.0,2.0,95,0.00,,,0.00,WeatherCatV1.21B27,2013-10-26 14:55:00,
2013-10-26 08:00:00,52.6,51.2,30.13,NNE,25,2.0,2.0,95,0.00,,,0.00,WeatherCatV1.21B27,2013-10-26 15:00:00,
2013-10-26 08:05:00,52.4,51.0,30.13,NNE,29,2.0,2.0,95,0.00,,,0.00,WeatherCatV1.21B27,2013-10-26 15:05:00,
2013-10-26 08:10:00,52.3,50.9,30.13,NNE,29,1.0,1.0,95,0.00,,,0.00,WeatherCatV1.21B27,2013-10-26 15:10:00,
2013-10-26 08:15:00,52.4,51.0,30.13,NNE,29,1.0,2.0,95,0.00,,,0.00,WeatherCatV1.21B27,2013-10-26 15:15:00,
2013-10-26 08:20:00,52.5,51.1,30.13,NNE,29,0.0,1.0,95,0.00,,,0.00,WeatherCatV1.21B27,2013-10-26 15:20:00,
2013-10-26 08:25:00,52.6,51.2,30.14,NNE,29,0.0,0.0,95,0.00,,,0.00,WeatherCatV1.21B27,2013-10-26 15:25:00,
2013-10-26 08:30:00,52.7,51.6,30.14,NNE,29,0.0,0.0,96,0.00,,,0.00,WeatherCatV1.21B27,2013-10-26 15:30:00,
2013-10-26 08:35:00,52.9,51.8,30.14,NNE,29,0.0,0.0,96,0.00,,,0.00,WeatherCatV1.21B27,2013-10-26 15:35:00,
2013-10-26 08:40:00,53.2,52.1,30.14,NNE,29,0.0,0.0,96,0.00,,,0.00,WeatherCatV1.21B27,2013-10-26 15:40:00,
2013-10-26 08:45:00,53.4,52.0,30.14,NNE,29,1.0,1.0,95,0.00,,,0.00,WeatherCatV1.21B27,2013-10-26 15:45:00,
2013-10-26 08:50:00,53.5,52.1,30.14,NNE,29,2.0,2.0,95,0.00,,,0.00,WeatherCatV1.21B27,2013-10-26 15:50:00,
2013-10-26 08:55:00,53.5,51.8,30.14,NNE,29,2.0,2.0,94,0.00,,,0.00,WeatherCatV1.21B27,2013-10-26 15:55:00,
2013-10-26 09:00:00,53.5,51.5,30.14,NNE,29,2.0,2.0,93,0.00,,,0.00,WeatherCatV1.21B27,2013-10-26 16:00:00,
2013-10-26 09:05:00,53.5,51.5,30.14,NNE,30,2.0,2.0,93,0.00,,,0.00,WeatherCatV1.21B27,2013-10-26 16:05:00,
2013-10-26 09:10:00,53.7,51.7,30.14,NNE,30,1.0,2.0,93,0.00,,,0.00,WeatherCatV1.21B27,2013-10-26 16:10:00,
2013-10-26 09:15:00,54.0,51.7,30.14,NNE,30,2.0,2.0,92,0.00,,,0.00,WeatherCatV1.21B27,2013-10-26 16:15:00,
2013-10-26 09:20:00,54.3,52.0,30.14,NNE,30,1.0,1.0,92,0.00,,,0.00,WeatherCatV1.21B27,2013-10-26 16:20:00,
2013-10-26 09:25:00,54.6,52.3,30.14,NNE,30,1.0,2.0,92,0.00,,,0.00,WeatherCatV1.21B27,2013-10-26 16:25:00,
2013-10-26 09:30:00,55.0,52.1,30.14,NNE,30,2.0,2.0,90,0.00,,,0.00,WeatherCatV1.21B27,2013-10-26 16:30:00,
2013-10-26 09:35:00,55.1,52.2,30.14,NNE,30,2.0,2.0,90,0.00,,,0.00,WeatherCatV1.21B27,2013-10-26 16:35:00,
2013-10-26 09:40:00,55.2,52.0,30.14,NNE,31,1.0,2.0,89,0.00,,,0.00,WeatherCatV1.21B27,2013-10-26 16:40:00,
2013-10-26 09:45:00,55.2,52.0,30.14,NNE,32,1.0,2.0,89,0.00,,,0.00,WeatherCatV1.21B27,2013-10-26 16:45:00,
2013-10-26 09:50:00,55.3,52.1,30.14,NE,35,2.0,2.0,89,0.00,,,0.00,WeatherCatV1.21B27,2013-10-26 16:50:00,
2013-10-26 09:55:00,55.5,52.3,30.14,NE,36,1.0,2.0,89,0.00,,,0.00,WeatherCatV1.21B27,2013-10-26 16:55:00,
2013-10-26 10:00:00,55.6,52.1,30.14,NE,41,1.0,2.0,88,0.00,,,0.00,WeatherCatV1.21B27,2013-10-26 17:00:00,
2013-10-26 10:05:00,55.7,52.2,30.14,NE,39,2.0,3.0,88,0.00,,,0.00,WeatherCatV1.21B27,2013-10-26 17:05:00,
2013-10-26 10:10:00,56.0,52.5,30.14,NE,34,1.0,2.0,88,0.00,,,0.00,WeatherCatV1.21B27,2013-10-26 17:10:00,
2013-10-26 10:15:00,56.3,52.8,30.14,NE,34,1.0,2.0,88,0.00,,,0.00,WeatherCatV1.21B27,2013-10-26 17:15:00,
2013-10-26 10:20:00,56.8,53.3,30.14,NE,34,0.0,1.0,88,0.00,,,0.00,WeatherCatV1.21B27,2013-10-26 17:20:00,
2013-10-26 10:25:00,57.6,54.1,30.14,NE,34,0.0,0.0,88,0.00,,,0.00,WeatherCatV1.21B27,2013-10-26 17:25:00,
2013-10-26 10:30:00,59.0,54.8,30.14,SW,216,0.0,2.0,86,0.00,,,0.00,WeatherCatV1.21B27,2013-10-26 17:30:00,
2013-10-26 10:35:00,60.4,55.5,30.14,SW,234,0.0,1.0,84,0.00,,,0.00,WeatherCatV1.21B27,2013-10-26 17:35:00,
2013-10-26 10:40:00,61.7,56.5,30.14,SW,227,0.0,1.0,83,0.00,,,0.00,WeatherCatV1.21B27,2013-10-26 17:40:00,
2013-10-26 10:45:00,62.4,56.1,30.13,SW,224,0.0,0.0,80,0.00,,,0.00,WeatherCatV1.21B27,2013-10-26 17:45:00,
2013-10-26 10:50:00,62.2,54.9,30.13,NNE,19,0.0,1.0,77,0.00,,,0.00,WeatherCatV1.21B27,2013-10-26 17:50:00,
2013-10-26 10:55:00,61.7,54.4,30.13,NNE,19,1.0,1.0,77,0.00,,,0.00,WeatherCatV1.21B27,2013-10-26 17:55:00,
2013-10-26 11:00:00,61.4,54.1,30.13,NNE,18,0.0,0.0,77,0.00,,,0.00,WeatherCatV1.21B27,2013-10-26 18:00:00,
2013-10-26 11:05:00,61.5,54.6,30.13,NNE,20,1.0,1.0,78,0.00,,,0.00,WeatherCatV1.21B27,2013-10-26 18:05:00,
2013-10-26 11:10:00,61.8,54.2,30.13,NNE,20,0.0,1.0,76,0.00,,,0.00,WeatherCatV1.21B27,2013-10-26 18:10:00,
2013-10-26 11:15:00,63.4,54.6,30.13,NNE,20,0.0,0.0,73,0.00,,,0.00,WeatherCatV1.21B27,2013-10-26 18:15:00,
2013-10-26 11:20:00,64.9,53.7,30.13,NNE,20,0.0,0.0,67,0.00,,,0.00,WeatherCatV1.21B27,2013-10-26 18:20:00,
2013-10-26 11:25:00,65.5,52.6,30.14,West,270,0.0,1.0,63,0.00,,,0.00,WeatherCatV1.21B27,2013-10-26 18:25:00,
2013-10-26 11:30:00,65.6,55.9,30.14,WSW,240,0.0,1.0,71,0.00,,,0.00,WeatherCatV1.21B27,2013-10-26 18:30:00,
2013-10-26 11:35:00,66.2,54.1,30.13,WSW,245,0.0,1.0,65,0.00,,,0.00,WeatherCatV1.21B27,2013-10-26 18:35:00,
2013-10-26 11:40:00,66.1,54.0,30.13,NE,37,0.0,1.0,65,0.00,,,0.00,WeatherCatV1.21B27,2013-10-26 18:40:00,
2013-10-26 11:45:00,65.9,54.2,30.13,NE,37,0.0,0.0,66,0.00,,,0.00,WeatherCatV1.21B27,2013-10-26 18:45:00,
2013-10-26 11:50:00,66.9,53.5,30.13,NE,37,0.0,1.0,62,0.00,,,0.00,WeatherCatV1.21B27,2013-10-26 18:50:00,
2013-10-26 11:55:00,67.5,52.7,30.13,NE,39,1.0,1.0,59,0.00,,,0.00,WeatherCatV1.21B27,2013-10-26 18:55:00,
2013-10-26 12:00:00,67.1,49.4,30.13,NE,41,1.0,1.0,53,0.00,,,0.00,WeatherCatV1.21B27,2013-10-26 19:00:00,
2013-10-26 12:05:00,67.0,47.7,30.13,NE,41,1.0,1.0,50,0.00,,,0.00,WeatherCatV1.21B27,2013-10-26 19:05:00,
2013-10-26 12:10:00,67.3,48.5,30.12,NE,43,0.0,1.0,51,0.00,,,0.00,WeatherCatV1.21B27,2013-10-26 19:10:00,
2013-10-26 12:15:00,67.6,48.3,30.12,NE,42,0.0,1.0,50,0.00,,,0.00,WeatherCatV1.21B27,2013-10-26 19:15:00,
2013-10-26 12:20:00,67.8,49.0,30.12,NE,43,1.0,1.0,51,0.00,,,0.00,WeatherCatV1.21B27,2013-10-26 19:20:00,
2013-10-26 12:25:00,68.2,50.9,30.12,NE,38,1.0,1.0,54,0.00,,,0.00,WeatherCatV1.21B27,2013-10-26 19:25:00,
2013-10-26 12:30:00,69.2,51.3,30.12,NE,38,0.0,1.0,53,0.00,,,0.00,WeatherCatV1.21B27,2013-10-26 19:30:00,
2013-10-26 12:35:00,69.8,52.4,30.11,NE,35,0.0,1.0,54,0.00,,,0.00,WeatherCatV1.21B27,2013-10-26 19:35:00,
2013-10-26 12:40:00,70.7,51.7,30.11,NE,36,2.0,2.0,51,0.00,,,0.00,WeatherCatV1.21B27,2013-10-26 19:40:00,
2013-10-26 12:45:00,71.1,52.0,30.11,NE,37,0.0,1.0,51,0.00,,,0.00,WeatherCatV1.21B27,2013-10-26 19:45:00,
2013-10-26 12:50:00,71.6,52.0,30.11,NE,37,0.0,1.0,50,0.00,,,0.00,WeatherCatV1.21B27,2013-10-26 19:50:00,
2013-10-26 12:55:00,71.9,51.7,30.11,NE,35,1.0,1.0,49,0.00,,,0.00,WeatherCatV1.21B27,2013-10-26 19:55:00,
2013-10-26 13:00:00,71.5,51.9,30.10,NE,34,0.0,1.0,50,0.00,,,0.00,WeatherCatV1.21B27,2013-10-26 20:00:00,
2013-10-26 13:05:00,71.7,51.5,30.10,NE,34,0.0,1.0,49,0.00,,,0.00,WeatherCatV1.21B27,2013-10-26 20:05:00,
2013-10-26 13:10:00,72.1,50.7,30.10,NNE,33,1.0,2.0,47,0.00,,,0.00,WeatherCatV1.21B27,2013-10-26 20:10:00,
2013-10-26 13:15:00,72.2,50.2,30.10,NE,35,0.0,0.0,46,0.00,,,0.00,WeatherCatV1.21B27,2013-10-26 20:15:00,
2013-10-26 13:20:00,72.3,50.3,30.09,NE,35,0.0,1.0,46,0.00,,,0.00,WeatherCatV1.21B27,2013-10-26 20:20:00,
2013-10-26 13:25:00,72.6,51.2,30.09,NE,46,0.0,1.0,47,0.00,,,0.00,WeatherCatV1.21B27,2013-10-26 20:25:00,
2013-10-26 13:30:00,73.4,50.8,30.09,North,11,0.0,0.0,45,0.00,,,0.00,WeatherCatV1.21B27,2013-10-26 20:30:00,
2013-10-26 13:35:00,74.0,50.7,30.08,NNE,31,1.0,2.0,44,0.00,,,0.00,WeatherCatV1.21B27,2013-10-26 20:35:00,
2013-10-26 13:40:00,74.2,52.1,30.08,NNE,30,0.0,0.0,46,0.00,,,0.00,WeatherCatV1.21B27,2013-10-26 20:40:00,
2013-10-26 13:45:00,74.5,51.1,30.08,NE,37,1.0,2.0,44,0.00,,,0.00,WeatherCatV1.21B27,2013-10-26 20:45:00,
2013-10-26 13:50:00,74.8,51.4,30.08,NE,37,0.0,1.0,44,0.00,,,0.00,WeatherCatV1.21B27,2013-10-26 20:50:00,
2013-10-26 13:55:00,74.9,51.5,30.07,NE,37,0.0,1.0,44,0.00,,,0.00,WeatherCatV1.21B27,2013-10-26 20:55:00,
2013-10-26 14:00:00,74.8,51.4,30.07,NE,36,1.0,2.0,44,0.00,,,0.00,WeatherCatV1.21B27,2013-10-26 21:00:00,
2013-10-26 14:05:00,75.1,51.7,30.07,NE,35,0.0,1.0,44,0.00,,,0.00,WeatherCatV1.21B27,2013-10-26 21:05:00,
2013-10-26 14:10:00,75.7,52.2,30.07,NE,36,0.0,0.0,44,0.00,,,0.00,WeatherCatV1.21B27,2013-10-26 21:10:00,
2013-10-26 14:15:00,76.4,52.8,30.07,NE,35,0.0,1.0,44,0.00,,,0.00,WeatherCatV1.21B27,2013-10-26 21:15:00,
2013-10-26 14:20:00,76.6,51.8,30.06,NE,35,0.0,1.0,42,0.00,,,0.00,WeatherCatV1.21B27,2013-10-26 21:20:00,
2013-10-26 14:25:00,76.7,51.9,30.06,NE,34,0.0,1.0,42,0.00,,,0.00,WeatherCatV1.21B27,2013-10-26 21:25:00,
2013-10-26 14:30:00,76.8,50.0,30.06,NNE,31,0.0,0.0,39,0.00,,,0.00,WeatherCatV1.21B27,2013-10-26 21:30:00,
2013-10-26 14:35:00,76.6,47.6,30.06,NNE,28,0.0,2.0,36,0.00,,,0.00,WeatherCatV1.21B27,2013-10-26 21:35:00,
2013-10-26 14:40:00,76.3,49.5,30.06,NNE,27,1.0,2.0,39,0.00,,,0.00,WeatherCatV1.21B27,2013-10-26 21:40:00,
2013-10-26 14:45:00,76.4,50.3,30.06,NNE,27,0.0,0.0,40,0.00,,,0.00,WeatherCatV1.21B27,2013-10-26 21:45:00,
2013-10-26 14:50:00,76.7,49.9,30.06,NNE,27,1.0,1.0,39,0.00,,,0.00,WeatherCatV1.21B27,2013-10-26 21:50:00,
2013-10-26 14:55:00,76.4,48.2,30.06,NNE,28,1.0,4.0,37,0.00,,,0.00,WeatherCatV1.21B27,2013-10-26 21:55:00,
2013-10-26 15:00:00,76.4,48.2,30.05,NNE,27,0.0,1.0,37,0.00,,,0.00,WeatherCatV1.21B27,2013-10-26 22:00:00,
2013-10-26 15:05:00,76.5,47.5,30.05,NNE,25,0.0,3.0,36,0.00,,,0.00,WeatherCatV1.21B27,2013-10-26 22:05:00,
2013-10-26 15:10:00,76.7,49.2,30.05,NNE,25,0.0,1.0,38,0.00,,,0.00,WeatherCatV1.21B27,2013-10-26 22:10:00,
2013-10-26 15:15:00,77.4,49.1,30.05,NNE,27,0.0,0.0,37,0.00,,,0.00,WeatherCatV1.21B27,2013-10-26 22:15:00,
2013-10-26 15:20:00,78.4,52.1,30.05,NNE,27,0.0,1.0,40,0.00,,,0.00,WeatherCatV1.21B27,2013-10-26 22:20:00,
2013-10-26 15:25:00,79.4,53.6,30.05,WSW,239,1.0,1.0,41,0.00,,,0.00,WeatherCatV1.21B27,2013-10-26 22:25:00,
2013-10-26 15:30:00,80.0,51.4,30.05,WSW,240,0.0,0.0,37,0.00,,,0.00,WeatherCatV1.21B27,2013-10-26 22:30:00,
2013-10-26 15:35:00,80.4,52.4,30.05,NE,42,0.0,1.0,38,0.00,,,0.00,WeatherCatV1.21B27,2013-10-26 22:35:00,
2013-10-26 15:41:00,81.2,53.9,30.04,SW,221,1.0,1.0,39,0.00,,,0.00,WeatherCatV1.21B27,2013-10-26 22:41:00,
2013-10-26 15:46:00,79.8,53.3,30.04,WSW,244,2.0,3.0,40,0.00,,,0.00,WeatherCatV1.21B27,2013-10-26 22:46:00,
2013-10-26 15:51:00,79.0,52.6,30.04,WSW,241,2.0,4.0,40,0.00,,,0.00,WeatherCatV1.21B27,2013-10-26 22:51:00,
2013-10-26 15:56:00,78.6,52.2,30.04,SW,236,2.0,3.0,40,0.00,,,0.00,WeatherCatV1.21B27,2013-10-26 22:56:00,
2013-10-26 16:01:00,78.9,51.8,30.04,WSW,240,2.0,4.0,39,0.00,,,0.00,WeatherCatV1.21B27,2013-10-26 23:01:00,
2013-10-26 16:06:00,78.4,52.1,30.04,WSW,254,1.0,4.0,40,0.00,,,0.00,WeatherCatV1.21B27,2013-10-26 23:06:00,
2013-10-26 16:11:00,77.8,52.8,30.04,WSW,255,4.0,5.0,42,0.00,,,0.00,WeatherCatV1.21B27,2013-10-26 23:11:00,
2013-10-26 16:16:00,77.2,51.7,30.03,WSW,243,3.0,5.0,41,0.00,,,0.00,WeatherCatV1.21B27,2013-10-26 23:16:00,
2013-10-26 16:21:00,77.3,52.4,30.03,SW,219,0.0,2.0,42,0.00,,,0.00,WeatherCatV1.21B27,2013-10-26 23:21:00,
2013-10-26 16:26:00,78.7,51.6,30.03,SSW,210,3.0,3.0,39,0.00,,,0.00,WeatherCatV1.21B27,2013-10-26 23:26:00,
2013-10-26 16:31:00,78.0,51.0,30.03,South,183,2.0,3.0,39,0.00,,,0.00,WeatherCatV1.21B27,2013-10-26 23:31:00,
2013-10-26 16:36:00,78.4,51.4,30.03,WSW,244,0.0,4.0,39,0.00,,,0.00,WeatherCatV1.21B27,2013-10-26 23:36:00,
2013-10-26 16:41:00,78.0,51.0,30.03,SSW,205,3.0,5.0,39,0.00,,,0.00,WeatherCatV1.21B27,2013-10-26 23:41:00,
2013-10-26 16:46:00,77.3,51.7,30.03,SW,214,2.0,3.0,41,0.00,,,0.00,WeatherCatV1.21B27,2013-10-26 23:46:00,
2013-10-26 16:51:00,76.6,51.1,30.03,SW,224,3.0,5.0,41,0.00,,,0.00,WeatherCatV1.21B27,2013-10-26 23:51:00,
2013-10-26 16:56:00,76.0,51.2,30.03,WSW,255,3.0,4.0,42,0.00,,,0.00,WeatherCatV1.21B27,2013-10-26 23:56:00,
2013-10-26 17:01:00,75.5,51.4,30.03,WSW,249,2.0,4.0,43,0.00,,,0.00,WeatherCatV1.21B27,2013-10-27 00:01:00,
2013-10-26 17:06:00,75.2,51.8,30.02,SW,224,2.0,3.0,44,0.00,,,0.00,WeatherCatV1.21B27,2013-10-27 00:06:00,
2013-10-26 17:11:00,75.0,51.6,30.02,SW,217,3.0,4.0,44,0.00,,,0.00,WeatherCatV1.21B27,2013-10-27 00:11:00,
2013-10-26 17:16:00,74.8,52.0,30.02,SW,223,2.0,3.0,45,0.00,,,0.00,WeatherCatV1.21B27,2013-10-27 00:16:00,
2013-10-26 17:21:00,74.6,51.8,30.02,WSW,248,3.0,4.0,45,0.00,,,0.00,WeatherCatV1.21B27,2013-10-27 00:21:00,
2013-10-26 17:26:00,74.4,52.2,30.02,SW,226,1.0,3.0,46,0.00,,,0.00,WeatherCatV1.21B27,2013-10-27 00:26:00,
2013-10-26 17:31:00,73.7,52.2,30.02,WSW,238,4.0,4.0,47,0.00,,,0.00,WeatherCatV1.21B27,2013-10-27 00:31:00,
2013-10-26 17:36:00,73.0,52.1,30.01,SW,233,0.0,3.0,48,0.00,,,0.00,WeatherCatV1.21B27,2013-10-27 00:36:00,
2013-10-26 17:41:00,72.8,52.0,30.01,WSW,237,3.0,5.0,48,0.00,,,0.00,WeatherCatV1.21B27,2013-10-27 00:41:00,
2013-10-26 17:46:00,72.8,52.0,30.01,SSW,206,0.0,3.0,48,0.00,,,0.00,WeatherCatV1.21B27,2013-10-27 00:46:00,
2013-10-26 17:51:00,72.6,51.8,30.01,SW,217,2.0,4.0,48,0.00,,,0.00,WeatherCatV1.21B27,2013-10-27 00:51:00,
2013-10-26 17:56:00,71.9,52.2,30.01,SW,217,1.0,4.0,50,0.00,,,0.00,WeatherCatV1.21B27,2013-10-27 00:56:00,
2013-10-26 18:01:00,71.4,52.3,30.01,SW,232,0.0,1.0,51,0.00,,,0.00,WeatherCatV1.21B27,2013-10-27 01:01:00,
2013-10-26 18:06:00,71.1,52.0,30.01,SW,218,0.0,2.0,51,0.00,,,0.00,WeatherCatV1.21B27,2013-10-27 01:06:00,
2013-10-26 18:11:00,70.6,52.1,30.01,WSW,250,2.0,2.0,52,0.00,,,0.00,WeatherCatV1.21B27,2013-10-27 01:11:00,
2013-10-26 18:16:00,69.8,51.9,30.01,WSW,245,0.0,0.0,53,0.00,,,0.00,WeatherCatV1.21B27,2013-10-27 01:16:00,
2013-10-26 18:21:00,69.1,51.7,30.01,WSW,245,0.0,0.0,54,0.00,,,0.00,WeatherCatV1.21B27,2013-10-27 01:21:00,
2013-10-26 18:26:00,68.6,51.8,30.01,WSW,244,0.0,0.0,55,0.00,,,0.00,WeatherCatV1.21B27,2013-10-27 01:26:00,
2013-10-26 18:31:00,68.1,51.8,30.01,WSW,245,0.0,0.0,56,0.00,,,0.00,WeatherCatV1.21B27,2013-10-27 01:31:00,
2013-10-26 18:36:00,67.5,50.3,30.01,WSW,245,0.0,0.0,54,0.00,,,0.00,WeatherCatV1.21B27,2013-10-27 01:36:00,
2013-10-26 18:41:00,67.5,49.2,30.01,WSW,244,0.0,0.0,52,0.00,,,0.00,WeatherCatV1.21B27,2013-10-27 01:41:00,
2013-10-26 18:46:00,67.8,51.5,30.01,WSW,245,0.0,0.0,56,0.00,,,0.00,WeatherCatV1.21B27,2013-10-27 01:46:00,
2013-10-26 18:51:00,67.6,49.8,30.01,WSW,245,0.0,0.0,53,0.00,,,0.00,WeatherCatV1.21B27,2013-10-27 01:51:00,
2013-10-26 18:56:00,67.7,49.9,30.01,West,274,0.0,0.0,53,0.00,,,0.00,WeatherCatV1.21B27,2013-10-27 01:56:00,
2013-10-26 19:01:00,68.1,50.3,30.01,West,274,0.0,0.0,53,0.00,,,0.00,WeatherCatV1.21B27,2013-10-27 02:01:00,
2013-10-26 19:06:00,68.1,50.3,30.01,West,274,0.0,1.0,53,0.00,,,0.00,WeatherCatV1.21B27,2013-10-27 02:06:00,
2013-10-26 19:11:00,68.1,50.8,30.01,NNE,13,0.0,0.0,54,0.00,,,0.00,WeatherCatV1.21B27,2013-10-27 02:11:00,
2013-10-26 19:16:00,67.9,50.1,30.01,NNE,12,0.0,0.0,53,0.00,,,0.00,WeatherCatV1.21B27,2013-10-27 02:16:00,
2013-10-26 19:21:00,67.8,50.0,30.02,NNE,12,0.0,0.0,53,0.00,,,0.00,WeatherCatV1.21B27,2013-10-27 02:21:00,
2013-10-26 19:26:00,67.7,49.9,30.02,NNE,31,0.0,1.0,53,0.00,,,0.00,WeatherCatV1.21B27,2013-10-27 02:26:00,
2013-10-26 19:31:00,67.5,49.8,30.02,NE,34,0.0,1.0,53,0.00,,,0.00,WeatherCatV1.21B27,2013-10-27 02:31:00,
2013-10-26 19:36:00,67.4,49.7,30.02,NNE,31,0.0,0.0,53,0.00,,,0.00,WeatherCatV1.21B27,2013-10-27 02:36:00,
2013-10-26 19:41:00,67.2,50.0,30.02,NNE,29,0.0,1.0,54,0.00,,,0.00,WeatherCatV1.21B27,2013-10-27 02:41:00,
2013-10-26 19:46:00,67.0,50.3,30.02,NNE,31,0.0,0.0,55,0.00,,,0.00,WeatherCatV1.21B27,2013-10-27 02:46:00,
2013-10-26 19:51:00,66.6,48.9,30.02,NNE,31,0.0,1.0,53,0.00,,,0.00,WeatherCatV1.21B27,2013-10-27 02:51:00,
2013-10-26 19:56:00,66.5,48.8,30.02,NNE,31,0.0,1.0,53,0.00,,,0.00,WeatherCatV1.21B27,2013-10-27 02:56:00,
2013-10-26 20:01:00,66.4,48.7,30.02,NNE,31,0.0,0.0,53,0.00,,,0.00,WeatherCatV1.21B27,2013-10-27 03:01:00,
2013-10-26 20:06:00,66.1,49.5,30.02,NNE,31,0.0,0.0,55,0.00,,,0.00,WeatherCatV1.21B27,2013-10-27 03:06:00,
2013-10-26 20:11:00,65.7,47.6,30.02,NNE,31,0.0,0.0,52,0.00,,,0.00,WeatherCatV1.21B27,2013-10-27 03:11:00,
2013-10-26 20:16:00,65.5,47.9,30.01,NNE,31,0.0,0.0,53,0.00,,,0.00,WeatherCatV1.21B27,2013-10-27 03:16:00,
2013-10-26 20:21:00,65.2,48.6,30.01,NNE,31,0.0,0.0,55,0.00,,,0.00,WeatherCatV1.21B27,2013-10-27 03:21:00,
2013-10-26 20:26:00,64.9,49.8,30.02,NNE,31,0.0,0.0,58,0.00,,,0.00,WeatherCatV1.21B27,2013-10-27 03:26:00,
2013-10-26 20:31:00,64.5,48.5,30.02,NNE,30,0.0,0.0,56,0.00,,,0.00,WeatherCatV1.21B27,2013-10-27 03:31:00,
2013-10-26 20:36:00,64.3,49.7,30.02,NNE,31,0.0,0.0,59,0.00,,,0.00,WeatherCatV1.21B27,2013-10-27 03:36:00,
2013-10-26 20:41:00,63.6,50.3,30.02,WSW,239,0.0,1.0,62,0.00,,,0.00,WeatherCatV1.21B27,2013-10-27 03:41:00,
2013-10-26 20:46:00,62.7,50.8,30.02,WSW,240,0.0,0.0,65,0.00,,,0.00,WeatherCatV1.21B27,2013-10-27 03:46:00,
2013-10-26 20:51:00,62.4,50.9,30.02,WSW,240,0.0,0.0,66,0.00,,,0.00,WeatherCatV1.21B27,2013-10-27 03:51:00,
2013-10-26 20:56:00,62.2,51.1,30.02,WSW,238,0.0,0.0,67,0.00,,,0.00,WeatherCatV1.21B27,2013-10-27 03:56:00,
2013-10-26 21:01:00,61.9,50.8,30.02,WSW,238,0.0,0.0,67,0.00,,,0.00,WeatherCatV1.21B27,2013-10-27 04:01:00,
2013-10-26 21:02:00,61.8,51.1,30.02,WSW,238,0.0,0.0,68,0.00,,,0.00,WeatherCatV1.21B27,2013-10-27 04:02:00,
2013-10-26 21:07:00,61.5,51.2,30.02,WSW,238,0.0,1.0,69,0.00,,,0.00,WeatherCatV1.21B27,2013-10-27 04:07:00,
2013-10-26 21:12:00,61.5,51.6,30.02,WSW,238,0.0,0.0,70,0.00,,,0.00,WeatherCatV1.21B27,2013-10-27 04:12:00,
2013-10-26 21:17:00,61.4,51.5,30.02,SW,220,1.0,1.0,70,0.00,,,0.00,WeatherCatV1.21B27,2013-10-27 04:17:00,
2013-10-26 21:22:00,61.0,51.5,30.02,SW,230,0.0,0.0,71,0.00,,,0.00,WeatherCatV1.21B27,2013-10-27 04:22:00,
2013-10-26 21:27:00,60.5,51.4,30.02,SW,217,0.0,1.0,72,0.00,,,0.00,WeatherCatV1.21B27,2013-10-27 04:27:00,
2013-10-26 21:32:00,59.9,51.6,30.02,WSW,243,2.0,2.0,74,0.00,,,0.00,WeatherCatV1.21B27,2013-10-27 04:32:00,
2013-10-26 21:37:00,58.6,51.4,30.03,WSW,241,0.0,1.0,77,0.00,,,0.00,WeatherCatV1.21B27,2013-10-27 04:37:00,
2013-10-26 21:42:00,57.8,51.7,30.03,SW,224,1.0,2.0,80,0.00,,,0.00,WeatherCatV1.21B27,2013-10-27 04:42:00,
2013-10-26 21:47:00,57.8,51.3,30.02,SW,235,0.0,0.0,79,0.00,,,0.00,WeatherCatV1.21B27,2013-10-27 04:47:00,
2013-10-26 21:52:00,57.9,51.1,30.03,SW,219,1.0,2.0,78,0.00,,,0.00,WeatherCatV1.21B27,2013-10-27 04:52:00,
2013-10-26 21:57:00,57.6,51.5,30.03,SW,227,0.0,0.0,80,0.00,,,0.00,WeatherCatV1.21B27,2013-10-27 04:57:00,
2013-10-26 22:02:00,57.4,50.6,30.03,SW,229,1.0,1.0,78,0.00,,,0.00,WeatherCatV1.21B27,2013-10-27 05:02:00,
2013-10-26 22:07:00,57.8,51.0,30.03,SW,232,2.0,3.0,78,0.00,,,0.00,WeatherCatV1.21B27,2013-10-27 05:07:00,
2013-10-26 22:12:00,57.8,51.3,30.03,SW,236,2.0,2.0,79,0.00,,,0.00,WeatherCatV1.21B27,2013-10-27 05:12:00,
2013-10-26 22:17:00,57.6,51.1,30.03,SW,228,2.0,3.0,79,0.00,,,0.00,WeatherCatV1.21B27,2013-10-27 05:17:00,
2013-10-26 22:22:00,56.9,51.5,30.03,SSW,210,0.0,1.0,82,0.00,,,0.00,WeatherCatV1.21B27,2013-10-27 05:22:00,
2013-10-26 22:27:00,56.6,51.5,30.03,SSW,213,0.0,1.0,83,0.00,,,0.00,WeatherCatV1.21B27,2013-10-27 05:27:00,
2013-10-26 22:32:00,56.4,51.6,30.03,SSW,212,0.0,0.0,84,0.00,,,0.00,WeatherCatV1.21B27,2013-10-27 05:32:00,
2013-10-26 22:37:00,56.2,51.4,30.03,SSW,212,0.0,0.0,84,0.00,,,0.00,WeatherCatV1.21B27,2013-10-27 05:37:00,
2013-10-26 22:42:00,56.1,51.3,30.03,SSW,212,0.0,1.0,84,0.00,,,0.00,WeatherCatV1.21B27,2013-10-27 05:42:00,
2013-10-26 22:47:00,56.0,50.9,30.03,South,181,0.0,0.0,83,0.00,,,0.00,WeatherCatV1.21B27,2013-10-27 05:47:00,
2013-10-26 22:52:00,56.0,50.6,30.03,South,181,0.0,0.0,82,0.00,,,0.00,WeatherCatV1.21B27,2013-10-27 05:52:00,
2013-10-26 22:57:00,56.1,50.0,30.03,WSW,240,0.0,1.0,80,0.00,,,0.00,WeatherCatV1.21B27,2013-10-27 05:57:00,
2013-10-26 23:02:00,56.6,50.2,30.03,SW,228,1.0,1.0,79,0.00,,,0.00,WeatherCatV1.21B27,2013-10-27 06:02:00,
2013-10-26 23:07:00,56.9,50.1,30.03,SW,234,0.0,2.0,78,0.00,,,0.00,WeatherCatV1.21B27,2013-10-27 06:07:00,
2013-10-26 23:12:00,56.9,50.1,30.02,SW,224,2.0,2.0,78,0.00,,,0.00,WeatherCatV1.21B27,2013-10-27 06:12:00,
2013-10-26 23:17:00,56.3,50.5,30.02,SW,236,1.0,2.0,81,0.00,,,0.00,WeatherCatV1.21B27,2013-10-27 06:17:00,
2013-10-26 23:23:00,55.5,50.1,30.03,WSW,241,2.0,2.0,82,0.00,,,0.00,WeatherCatV1.21B27,2013-10-27 06:23:00,
2013-10-26 23:28:00,54.8,50.4,30.02,SW,218,0.0,1.0,85,0.00,,,0.00,WeatherCatV1.21B27,2013-10-27 06:28:00,
2013-10-26 23:33:00,54.3,50.5,30.02,SW,221,1.0,1.0,87,0.00,,,0.00,WeatherCatV1.21B27,2013-10-27 06:33:00,
2013-10-26 23:38:00,54.0,50.2,30.02,SW,233,0.0,1.0,87,0.00,,,0.00,WeatherCatV1.21B27,2013-10-27 06:38:00,
2013-10-26 23:43:00,53.7,50.2,30.02,SW,233,1.0,1.0,88,0.00,,,0.00,WeatherCatV1.21B27,2013-10-27 06:43:00,
2013-10-26 23:48:00,53.6,50.1,30.02,SW,233,0.0,0.0,88,0.00,,,0.00,WeatherCatV1.21B27,2013-10-27 06:48:00,
2013-10-26 23:53:00,53.5,50.0,30.02,SW,232,0.0,0.0,88,0.00,,,0.00,WeatherCatV1.21B27,2013-10-27 06:53:00,
2013-10-26 23:58:00,53.5,49.7,30.02,SW,233,1.0,1.0,87,0.00,,,0.00,WeatherCatV1.21B27,2013-10-27 06:58:00,